RYR13 GVAC-ESSA

Flight info

Callsign RYR13
Flight time N/A
Altitude 23000
Route DIMKI1A DIMKI B623 IPERA/N0472F330 N873 LIMAL/N0461F350 N873 UDATI/N0463F340 DCT SAMAR DCT NEVTU DCT TIGGI/N0457F360 DCT TROIA DCT TOFEF DCT BARDI DCT ZMR DCT NUBLO DCT RONSI DCT DELOG DCT DIDIG DCT USODA DCT ERCUT DCT DITAL UN873 BAZOS DCT BELDI/N0453F370 DCT VICOT DCT BLUFA DCT OGFON DCT AMRAK DCT ADVOP DCT NEMBA DCT MIKNA N851 PELUP DCT IFCAG DCT NILUG
Aircraft B38M/M-SDE1FGHILORVWXY/HB1

Departure

Time 2026-04-29 10:31
Airport Amílcar Cabral International Airport (GVAC)

Arrival

Time N/A
Airport Stockholm-Arlanda Airport (ESSA)
Time Latitude Longitude Altitude Speed Heading
2026-04-29 10:12 16.73232 -22.94491 192 ft 0 kts 90°
2026-04-29 10:27 16.73232 -22.94490 191 ft 0 kts 92°
2026-04-29 10:27 16.73231 -22.94489 191 ft 0 kts 113°
2026-04-29 10:27 16.73230 -22.94488 191 ft 0 kts 138°
2026-04-29 10:28 16.73207 -22.94489 192 ft 6 kts 198°
2026-04-29 10:28 16.73141 -22.94542 193 ft 16 kts 222°
2026-04-29 10:28 16.73043 -22.94652 193 ft 24 kts 221°
2026-04-29 10:28 16.72865 -22.94690 193 ft 29 kts 181°
2026-04-29 10:29 16.72643 -22.94689 189 ft 31 kts 180°
2026-04-29 10:29 16.72456 -22.94689 185 ft 21 kts 182°
2026-04-29 10:29 16.72397 -22.94777 184 ft 13 kts 266°
2026-04-29 10:29 16.72383 -22.94853 184 ft 8 kts 286°
2026-04-29 10:30 16.72482 -22.94886 185 ft 36 kts
2026-04-29 10:30 16.72919 -22.94887 191 ft 90 kts
2026-04-29 10:30 16.73729 -22.94899 193 ft 138 kts 359°
2026-04-29 10:30 16.74808 -22.94893 191 ft 172 kts
2026-04-29 10:31 16.76075 -22.94882 482 ft 190 kts
2026-04-29 10:31 16.77514 -22.94902 687 ft 219 kts
2026-04-29 10:31 16.79129 -22.94974 1286 ft 230 kts
2026-04-29 10:31 16.80673 -22.95013 2403 ft 219 kts
2026-04-29 10:32 16.82281 -22.95017 2821 ft 237 kts
2026-04-29 10:32 16.84008 -22.95008 3302 ft 251 kts
2026-04-29 10:32 16.85770 -22.95009 3919 ft 258 kts 359°
2026-04-29 10:32 16.87608 -22.95011 4553 ft 264 kts 359°
2026-04-29 10:33 16.89492 -22.94980 5218 ft 269 kts
2026-04-29 10:33 16.91410 -22.94669 5828 ft 277 kts 12°
2026-04-29 10:33 16.93258 -22.93995 6399 ft 285 kts 23°
2026-04-29 10:33 16.95027 -22.92968 7062 ft 289 kts 30°
2026-04-29 10:34 16.96737 -22.91773 7659 ft 294 kts 33°
2026-04-29 10:34 16.98462 -22.90504 8252 ft 298 kts 33°
2026-04-29 10:34 17.00160 -22.89250 8822 ft 301 kts 33°
2026-04-29 10:34 17.01934 -22.87953 9420 ft 304 kts 33°
2026-04-29 10:35 17.03707 -22.86666 9992 ft 307 kts 32°
2026-04-29 10:35 17.05526 -22.85351 10332 ft 319 kts 32°
2026-04-29 10:35 17.07440 -22.83971 10404 ft 339 kts 32°
2026-04-29 10:35 17.09479 -22.82500 10466 ft 359 kts 32°
2026-04-29 10:36 17.11633 -22.80944 10787 ft 369 kts 32°
2026-04-29 10:36 17.13789 -22.79384 11295 ft 373 kts 32°
2026-04-29 10:36 17.15961 -22.77812 11806 ft 376 kts 32°
2026-04-29 10:36 17.18191 -22.76199 12353 ft 377 kts 32°
2026-04-29 10:37 17.20397 -22.74604 12821 ft 381 kts 32°
2026-04-29 10:37 17.22634 -22.72985 13315 ft 383 kts 32°
2026-04-29 10:37 17.24882 -22.71359 13808 ft 386 kts 32°
2026-04-29 10:37 17.27132 -22.69730 14253 ft 389 kts 32°
2026-04-29 10:38 17.29418 -22.68075 14726 ft 391 kts 32°
2026-04-29 10:38 17.31718 -22.66409 15178 ft 394 kts 32°
2026-04-29 10:38 17.34038 -22.64728 15605 ft 397 kts 32°
2026-04-29 10:38 17.36353 -22.63051 16041 ft 399 kts 32°
2026-04-29 10:39 17.38678 -22.61366 16432 ft 402 kts 32°
2026-04-29 10:39 17.41034 -22.59658 16826 ft 405 kts 32°
2026-04-29 10:39 17.43409 -22.57935 17251 ft 406 kts 32°
2026-04-29 10:39 17.45778 -22.56216 17622 ft 409 kts 32°
2026-04-29 10:40 17.48169 -22.54480 18001 ft 412 kts 32°
2026-04-29 10:40 17.50583 -22.52728 18372 ft 414 kts 31°
2026-04-29 10:40 17.53002 -22.50971 18727 ft 417 kts 32°
2026-04-29 10:40 17.55447 -22.49194 19089 ft 419 kts 31°
2026-04-29 10:41 17.57928 -22.47393 19409 ft 422 kts 31°
2026-04-29 10:41 17.60391 -22.45604 19776 ft 423 kts 31°
2026-04-29 10:41 17.62880 -22.43796 20098 ft 426 kts 31°
2026-04-29 10:41 17.65385 -22.41976 20417 ft 429 kts 31°
2026-04-29 10:42 17.67858 -22.40176 20749 ft 430 kts 31°
2026-04-29 10:42 17.70403 -22.38325 21041 ft 433 kts 31°
2026-04-29 10:42 17.72905 -22.36504 21357 ft 435 kts 31°
2026-04-29 10:42 17.75472 -22.34635 21663 ft 437 kts 31°
2026-04-29 10:43 17.78019 -22.32781 21913 ft 440 kts 31°
2026-04-29 10:43 17.80579 -22.30916 22208 ft 441 kts 31°
2026-04-29 10:43 17.83137 -22.29052 22473 ft 443 kts 31°
2026-04-29 10:43 17.85753 -22.27145 22733 ft 445 kts 31°
2026-04-29 10:44 17.88338 -22.25299 22982 ft 446 kts 28°
2026-04-29 10:44 17.91069 -22.23545 23228 ft 447 kts 26°
2026-04-29 10:44 17.93787 -22.21850 23494 ft 448 kts 26°
2026-04-29 10:44 17.96546 -22.20141 23745 ft 450 kts 26°
2026-04-29 10:45 17.99280 -22.18449 23982 ft 452 kts 26°
2026-04-29 10:45 18.02036 -22.16746 24245 ft 453 kts 25°
2026-04-29 10:45 18.04794 -22.15043 24492 ft 454 kts 25°
2026-04-29 10:45 18.07546 -22.13346 24721 ft 456 kts 25°
2026-04-29 10:46 18.10345 -22.11619 24968 ft 457 kts 25°
2026-04-29 10:46 18.13111 -22.09913 25211 ft 458 kts 25°
2026-04-29 10:46 18.15889 -22.08200 25447 ft 459 kts 25°
2026-04-29 10:46 18.18684 -22.06476 25658 ft 461 kts 25°
2026-04-29 10:47 18.21493 -22.04742 25881 ft 462 kts 25°
2026-04-29 10:47 18.24324 -22.02996 26108 ft 463 kts 25°
2026-04-29 10:47 18.27146 -22.01254 26316 ft 464 kts 25°
2026-04-29 10:47 18.29952 -21.99521 26523 ft 465 kts 24°
2026-04-29 10:48 18.32820 -21.97750 26728 ft 466 kts 24°
2026-04-29 10:48 18.35632 -21.96013 26914 ft 467 kts 24°
2026-04-29 10:48 18.38481 -21.94252 27095 ft 469 kts 24°
2026-04-29 10:48 18.41337 -21.92486 27293 ft 470 kts 24°
2026-04-29 10:49 18.44201 -21.90715 27478 ft 471 kts 24°
2026-04-29 10:49 18.47040 -21.88958 27678 ft 471 kts 24°
2026-04-29 10:49 18.49901 -21.87188 27833 ft 473 kts 24°
2026-04-29 10:49 18.52780 -21.85405 28033 ft 473 kts 24°
2026-04-29 10:50 18.55658 -21.83622 28198 ft 475 kts 24°
2026-04-29 10:50 18.58526 -21.81845 28354 ft 476 kts 24°
2026-04-29 10:50 18.61394 -21.80067 28507 ft 477 kts 24°
2026-04-29 10:50 18.64240 -21.78303 28654 ft 478 kts 24°
2026-04-29 10:51 18.67141 -21.76502 28829 ft 479 kts 23°
2026-04-29 10:51 18.70025 -21.74712 28975 ft 480 kts 23°
2026-04-29 10:51 18.72899 -21.72928 29124 ft 481 kts 23°
2026-04-29 10:51 18.75820 -21.71114 29251 ft 482 kts 23°
2026-04-29 10:52 18.78725 -21.69308 29405 ft 483 kts 23°
2026-04-29 10:52 18.81626 -21.67505 29531 ft 484 kts 23°
2026-04-29 10:52 18.84560 -21.65680 29656 ft 485 kts 23°
2026-04-29 10:52 18.87479 -21.63864 29820 ft 485 kts 23°
2026-04-29 10:53 18.90438 -21.62023 29930 ft 487 kts 23°
2026-04-29 10:53 18.93392 -21.60184 30054 ft 488 kts 23°
2026-04-29 10:53 18.96377 -21.58324 30215 ft 488 kts 23°
2026-04-29 10:53 18.99307 -21.56498 30359 ft 488 kts 23°
2026-04-29 10:54 19.02295 -21.54634 30516 ft 488 kts 23°
2026-04-29 10:54 19.05252 -21.52790 30664 ft 489 kts 23°
2026-04-29 10:54 19.08177 -21.50964 30827 ft 489 kts 23°
2026-04-29 10:54 19.11141 -21.49114 30964 ft 489 kts 23°
2026-04-29 10:55 19.14060 -21.47291 31099 ft 490 kts 23°
2026-04-29 10:55 19.17016 -21.45444 31252 ft 490 kts 23°
2026-04-29 10:55 19.19959 -21.43605 31386 ft 490 kts 23°
2026-04-29 10:55 19.22893 -21.41770 31539 ft 490 kts 23°
2026-04-29 10:56 19.25841 -21.39926 31676 ft 490 kts 23°
2026-04-29 10:56 19.28779 -21.38087 31814 ft 491 kts 23°
2026-04-29 10:56 19.31736 -21.36236 31961 ft 491 kts 23°
2026-04-29 10:56 19.34661 -21.34403 32084 ft 491 kts 24°
2026-04-29 10:57 19.37617 -21.32553 32187 ft 492 kts 24°
2026-04-29 10:57 19.40530 -21.30727 32306 ft 492 kts 24°
2026-04-29 10:57 19.43477 -21.28880 32414 ft 492 kts 24°
2026-04-29 10:57 19.46449 -21.27015 32529 ft 492 kts 24°
2026-04-29 10:58 19.49391 -21.25170 32634 ft 493 kts 24°
2026-04-29 10:58 19.55274 -21.21475 32845 ft 493 kts 24°
2026-04-29 10:58 19.58224 -21.19621 32958 ft 493 kts 24°
2026-04-29 10:59 19.61178 -21.17764 33040 ft 494 kts 24°
2026-04-29 10:59 19.67123 -21.14025 33047 ft 497 kts 24°
2026-04-29 11:00 19.73072 -21.10277 33046 ft 495 kts 24°
2026-04-29 11:00 19.78956 -21.06568 33047 ft 494 kts 24°
2026-04-29 11:01 19.84902 -21.02818 33019 ft 494 kts 24°
2026-04-29 11:01 19.90764 -20.99116 33020 ft 494 kts 24°
2026-04-29 11:02 19.96704 -20.95364 33020 ft 494 kts 24°
2026-04-29 11:02 20.02626 -20.91617 33019 ft 495 kts 23°
2026-04-29 11:03 20.08608 -20.87831 33020 ft 497 kts 23°
2026-04-29 11:03 20.14507 -20.84093 33020 ft 496 kts 23°
2026-04-29 11:04 20.20458 -20.80318 33019 ft 496 kts 23°
2026-04-29 11:04 20.26392 -20.76552 33020 ft 496 kts 23°
2026-04-29 11:05 20.32304 -20.72796 32992 ft 497 kts 23°
2026-04-29 11:05 20.38213 -20.69032 32993 ft 497 kts 23°
2026-04-29 11:06 20.44128 -20.65202 32993 ft 497 kts 23°
2026-04-29 11:06 20.50044 -20.61390 32993 ft 497 kts 23°
2026-04-29 11:07 20.55941 -20.57603 32993 ft 497 kts 23°
2026-04-29 11:07 20.61863 -20.53805 32993 ft 497 kts 23°
2026-04-29 11:08 20.67789 -20.50005 32993 ft 497 kts 23°
2026-04-29 11:08 20.73725 -20.46198 32993 ft 497 kts 23°
2026-04-29 11:09 20.79633 -20.42408 32993 ft 497 kts 23°
2026-04-29 11:09 20.85565 -20.38599 32993 ft 497 kts 23°
2026-04-29 11:10 20.91485 -20.34795 32992 ft 498 kts 23°
2026-04-29 11:10 20.97422 -20.30979 32993 ft 498 kts 23°
2026-04-29 11:11 21.03332 -20.27176 32993 ft 498 kts 23°
2026-04-29 11:11 21.09277 -20.23346 32992 ft 499 kts 23°
2026-04-29 11:12 21.15222 -20.19512 32993 ft 499 kts 23°
2026-04-29 11:12 21.21146 -20.15688 32993 ft 499 kts 23°
2026-04-29 11:13 21.27085 -20.11850 32993 ft 499 kts 22°
2026-04-29 11:13 21.33020 -20.08012 32993 ft 499 kts 22°
2026-04-29 11:14 21.38973 -20.04157 32992 ft 499 kts 22°
2026-04-29 11:14 21.44889 -20.00324 32993 ft 499 kts 22°
2026-04-29 11:15 21.50848 -19.96458 32993 ft 500 kts 22°
2026-04-29 11:15 21.56846 -19.92563 32994 ft 500 kts 22°
2026-04-29 11:16 21.62894 -19.88632 32992 ft 500 kts 22°
2026-04-29 11:16 21.68868 -19.84746 32993 ft 501 kts 22°
2026-04-29 11:17 21.74858 -19.80845 32993 ft 501 kts 22°
2026-04-29 11:17 21.80826 -19.76955 32993 ft 502 kts 22°
2026-04-29 11:18 21.86865 -19.73014 32993 ft 502 kts 22°
2026-04-29 11:18 21.92837 -19.69113 32993 ft 502 kts 22°
2026-04-29 11:19 21.98884 -19.65159 32993 ft 502 kts 22°
2026-04-29 11:19 22.04947 -19.61191 32993 ft 502 kts 22°
2026-04-29 11:20 22.10951 -19.57245 32992 ft 503 kts 23°
2026-04-29 11:20 22.16923 -19.53285 32993 ft 504 kts 23°
2026-04-29 11:21 22.22871 -19.49354 32993 ft 504 kts 23°
2026-04-29 11:21 22.28838 -19.45418 32993 ft 503 kts 23°
2026-04-29 11:22 22.34818 -19.41477 32993 ft 503 kts 23°
2026-04-29 11:22 22.40757 -19.37561 32993 ft 503 kts 23°
2026-04-29 11:23 22.46752 -19.33608 32992 ft 504 kts 23°
2026-04-29 11:23 22.52704 -19.29684 32993 ft 505 kts 23°
2026-04-29 11:24 22.58690 -19.25732 32992 ft 505 kts 23°
2026-04-29 11:24 22.64704 -19.21756 32993 ft 505 kts 23°
2026-04-29 11:25 22.70686 -19.17797 32993 ft 504 kts 23°
2026-04-29 11:25 22.76643 -19.13850 32992 ft 505 kts 23°
2026-04-29 11:26 22.85644 -19.07879 32993 ft 506 kts 24°
2026-04-29 11:26 22.91630 -19.03902 32993 ft 506 kts 23°
2026-04-29 11:27 22.97624 -18.99915 32993 ft 505 kts 24°
2026-04-29 11:27 23.03580 -18.95950 32993 ft 505 kts 24°
2026-04-29 11:28 23.09569 -18.91959 32993 ft 505 kts 24°
2026-04-29 11:28 23.15527 -18.87985 32993 ft 506 kts 24°
2026-04-29 11:29 23.21528 -18.83977 32993 ft 507 kts 24°
2026-04-29 11:29 23.27508 -18.79979 33003 ft 506 kts 24°
2026-04-29 11:30 23.33479 -18.75982 33013 ft 505 kts 24°
2026-04-29 11:30 23.39465 -18.71972 33020 ft 505 kts 24°
2026-04-29 11:31 23.45481 -18.67937 33020 ft 505 kts 24°
2026-04-29 11:31 23.51452 -18.63928 33020 ft 506 kts 24°
2026-04-29 11:32 23.57422 -18.59915 33020 ft 507 kts 24°
2026-04-29 11:32 23.63431 -18.55872 33020 ft 507 kts 24°
2026-04-29 11:33 23.69399 -18.51851 33020 ft 506 kts 24°
2026-04-29 11:33 23.75402 -18.47803 33020 ft 506 kts 24°
2026-04-29 11:34 23.81395 -18.43758 33020 ft 506 kts 24°
2026-04-29 11:34 23.87347 -18.39736 33020 ft 507 kts 24°
2026-04-29 11:35 23.93355 -18.35671 33020 ft 508 kts 24°
2026-04-29 11:35 23.99375 -18.31596 33020 ft 507 kts 24°
2026-04-29 11:36 24.05364 -18.27537 33020 ft 507 kts 24°
2026-04-29 11:36 24.11360 -18.23469 33020 ft 507 kts 24°
2026-04-29 11:37 24.17333 -18.19411 33020 ft 507 kts 24°
2026-04-29 11:37 24.23308 -18.15347 33020 ft 507 kts 24°
2026-04-29 11:38 24.29351 -18.11231 33020 ft 507 kts 24°
2026-04-29 11:38 24.35367 -18.07130 33020 ft 508 kts 25°
2026-04-29 11:39 24.41399 -18.03013 33019 ft 508 kts 25°
2026-04-29 11:39 24.47409 -17.98905 33020 ft 508 kts 25°
2026-04-29 11:40 24.53439 -17.94779 33019 ft 507 kts 25°
2026-04-29 11:40 24.59474 -17.90645 33019 ft 506 kts 25°
2026-04-29 11:41 24.65525 -17.86496 33020 ft 506 kts 25°
2026-04-29 11:41 24.71555 -17.82356 33020 ft 506 kts 25°
2026-04-29 11:42 24.77605 -17.78198 33020 ft 506 kts 25°
2026-04-29 11:42 24.83612 -17.74064 33019 ft 505 kts 26°
2026-04-29 11:43 24.89664 -17.69895 33020 ft 505 kts 26°
2026-04-29 11:43 24.95690 -17.65739 33020 ft 505 kts 26°
2026-04-29 11:44 25.01740 -17.61551 33019 ft 504 kts 26°
2026-04-29 11:44 25.07590 -17.57412 33020 ft 505 kts 27°
2026-04-29 11:45 25.13554 -17.53223 33019 ft 503 kts 26°
2026-04-29 11:45 25.19500 -17.49067 33020 ft 504 kts 26°
2026-04-29 11:46 25.25465 -17.44909 33020 ft 504 kts 26°
2026-04-29 11:46 25.31488 -17.40711 33020 ft 503 kts 26°
2026-04-29 11:47 25.37436 -17.36566 33020 ft 503 kts 27°
2026-04-29 11:47 25.43409 -17.32402 33020 ft 503 kts 27°
2026-04-29 11:48 25.49397 -17.28225 33020 ft 503 kts 27°
2026-04-29 11:48 25.55314 -17.24092 33020 ft 503 kts 27°
2026-04-29 11:49 25.61238 -17.19949 33020 ft 503 kts 27°
2026-04-29 11:49 25.67172 -17.15793 33019 ft 502 kts 27°
2026-04-29 11:50 25.73118 -17.11624 33020 ft 502 kts 27°
2026-04-29 11:50 25.79044 -17.07464 33020 ft 502 kts 27°
2026-04-29 11:51 25.84955 -17.03309 33019 ft 501 kts 27°
2026-04-29 11:51 25.90874 -16.99144 33020 ft 501 kts 27°
2026-04-29 11:52 25.96757 -16.94999 33020 ft 501 kts 27°
2026-04-29 11:52 26.02640 -16.90851 33020 ft 500 kts 28°
2026-04-29 11:53 26.08502 -16.86711 33019 ft 498 kts 28°
2026-04-29 11:53 26.14183 -16.82693 33020 ft 498 kts 28°
2026-04-29 11:54 26.20184 -16.78836 33021 ft 496 kts 23°
2026-04-29 11:54 26.26409 -16.75539 33020 ft 493 kts 19°
2026-04-29 11:55 26.32701 -16.72467 33020 ft 493 kts 19°
2026-04-29 11:55 26.38952 -16.69434 33020 ft 492 kts 19°
2026-04-29 11:56 26.45219 -16.66400 33020 ft 492 kts 19°
2026-04-29 11:56 26.51481 -16.63370 33020 ft 492 kts 19°
2026-04-29 11:57 26.57785 -16.60320 33020 ft 492 kts 19°
2026-04-29 11:57 26.64090 -16.57268 33020 ft 492 kts 19°
2026-04-29 11:58 26.70370 -16.54224 33020 ft 492 kts 19°
2026-04-29 11:58 26.76643 -16.51180 33020 ft 492 kts 19°
2026-04-29 11:59 26.82890 -16.48146 33020 ft 492 kts 19°
2026-04-29 11:59 26.89172 -16.45092 33020 ft 492 kts 19°
2026-04-29 12:00 26.95441 -16.42039 33019 ft 492 kts 19°
2026-04-29 12:00 27.01706 -16.38986 33020 ft 492 kts 19°
2026-04-29 12:01 27.07984 -16.35922 33020 ft 491 kts 19°
2026-04-29 12:01 27.14214 -16.32879 33020 ft 491 kts 20°
2026-04-29 12:02 27.20509 -16.29802 33020 ft 491 kts 20°
2026-04-29 12:02 27.26750 -16.26746 33020 ft 491 kts 20°
2026-04-29 12:03 27.33006 -16.23679 33019 ft 491 kts 20°
2026-04-29 12:03 27.39270 -16.20604 33020 ft 491 kts 20°
2026-04-29 12:04 27.45513 -16.17534 33020 ft 491 kts 20°
2026-04-29 12:04 27.51779 -16.14450 33020 ft 490 kts 20°
2026-04-29 12:05 27.58027 -16.11371 32992 ft 491 kts 21°
2026-04-29 12:05 27.64261 -16.08294 32992 ft 491 kts 21°
2026-04-29 12:06 27.70509 -16.05207 32994 ft 492 kts 21°
2026-04-29 12:06 27.76750 -16.02119 32992 ft 491 kts 21°
2026-04-29 12:07 27.82999 -15.99024 32993 ft 490 kts 21°
2026-04-29 12:07 27.89194 -15.95952 32992 ft 491 kts 21°
2026-04-29 12:08 27.95484 -15.92827 32996 ft 498 kts 20°
2026-04-29 12:08 28.01852 -15.89662 32994 ft 502 kts 20°
2026-04-29 12:09 28.08220 -15.86491 32992 ft 501 kts 20°
2026-04-29 12:09 28.14587 -15.83316 32993 ft 500 kts 20°
2026-04-29 12:10 28.20941 -15.80145 32993 ft 500 kts 20°
2026-04-29 12:10 28.27243 -15.76995 32993 ft 499 kts 21°
2026-04-29 12:11 28.33620 -15.73804 32993 ft 499 kts 21°
2026-04-29 12:11 28.39966 -15.70624 32993 ft 499 kts 21°
2026-04-29 12:12 28.46291 -15.67450 32992 ft 498 kts 21°
2026-04-29 12:12 28.52619 -15.64270 32993 ft 498 kts 21°
2026-04-29 12:13 28.58914 -15.61104 32992 ft 498 kts 21°
2026-04-29 12:13 28.65268 -15.57903 32993 ft 498 kts 21°
2026-04-29 12:14 28.71564 -15.54727 32992 ft 497 kts 21°
2026-04-29 12:14 28.77844 -15.51556 32993 ft 497 kts 21°
2026-04-29 12:15 28.84185 -15.48348 33018 ft 496 kts 21°
2026-04-29 12:15 28.90532 -15.45134 33020 ft 495 kts 21°
2026-04-29 12:16 28.96890 -15.41910 33019 ft 495 kts 21°
2026-04-29 12:16 29.03305 -15.38653 33020 ft 495 kts 21°
2026-04-29 12:17 29.09652 -15.35426 33019 ft 494 kts 21°
2026-04-29 12:17 29.15960 -15.32216 33020 ft 494 kts 22°
2026-04-29 12:18 29.22267 -15.29002 33019 ft 494 kts 22°
2026-04-29 12:18 29.28553 -15.25794 33020 ft 494 kts 22°
2026-04-29 12:19 29.34857 -15.22572 33020 ft 494 kts 22°
2026-04-29 12:19 29.41148 -15.19352 33019 ft 493 kts 22°
2026-04-29 12:20 29.47408 -15.16143 33022 ft 493 kts 22°
2026-04-29 12:20 29.53694 -15.12916 33009 ft 494 kts 22°
2026-04-29 12:21 29.60005 -15.09673 32995 ft 494 kts 22°
2026-04-29 12:21 29.66260 -15.06453 32993 ft 493 kts 22°
2026-04-29 12:22 29.72509 -15.03232 32993 ft 492 kts 22°
2026-04-29 12:22 29.78737 -15.00017 32993 ft 492 kts 22°
2026-04-29 12:23 29.85008 -14.96776 32993 ft 492 kts 22°
2026-04-29 12:23 29.91262 -14.93539 32993 ft 492 kts 22°
2026-04-29 12:24 29.97516 -14.90298 32993 ft 492 kts 22°
2026-04-29 12:24 30.03756 -14.87060 32992 ft 489 kts 22°
2026-04-29 12:25 30.09962 -14.83834 32993 ft 487 kts 22°
2026-04-29 12:26 30.19334 -14.78955 32993 ft 488 kts 22°
2026-04-29 12:26 30.25602 -14.75687 32993 ft 488 kts 22°
2026-04-29 12:27 30.31866 -14.72415 32993 ft 488 kts 22°
2026-04-29 12:27 30.38151 -14.69128 32993 ft 488 kts 22°
2026-04-29 12:28 30.44390 -14.65861 32993 ft 488 kts 22°
2026-04-29 12:28 30.50645 -14.62581 32993 ft 487 kts 22°
2026-04-29 12:29 30.56911 -14.59290 32993 ft 487 kts 22°
2026-04-29 12:29 30.63137 -14.56016 32993 ft 487 kts 22°
2026-04-29 12:30 30.69388 -14.52724 32993 ft 487 kts 22°
2026-04-29 12:30 30.75628 -14.49433 32993 ft 487 kts 22°
2026-04-29 12:31 30.81855 -14.46144 32992 ft 486 kts 22°
2026-04-29 12:31 30.88067 -14.42858 32993 ft 486 kts 22°
2026-04-29 12:32 30.94238 -14.39481 32993 ft 487 kts 24°
2026-04-29 12:32 31.00416 -14.35959 32993 ft 486 kts 23°
2026-04-29 12:33 31.06542 -14.32521 32992 ft 485 kts 23°
2026-04-29 12:33 31.12616 -14.29139 32993 ft 484 kts 23°
2026-04-29 12:34 31.18733 -14.25743 32992 ft 483 kts 23°
2026-04-29 12:34 31.24823 -14.22367 32993 ft 483 kts 23°
2026-04-29 12:35 31.30911 -14.18992 32993 ft 483 kts 23°
2026-04-29 12:35 31.36994 -14.15617 32993 ft 483 kts 23°
2026-04-29 12:36 31.43092 -14.12231 32993 ft 483 kts 23°
2026-04-29 12:36 31.49158 -14.08858 32992 ft 482 kts 23°
2026-04-29 12:37 31.55225 -14.05479 32992 ft 480 kts 23°
2026-04-29 12:37 31.61276 -14.02106 32993 ft 480 kts 23°
2026-04-29 12:38 31.67354 -13.98712 32993 ft 480 kts 23°
2026-04-29 12:38 31.73438 -13.95311 32992 ft 480 kts 23°
2026-04-29 12:39 31.79539 -13.91895 32993 ft 480 kts 23°
2026-04-29 12:39 31.85580 -13.88508 32992 ft 479 kts 23°
2026-04-29 12:40 31.91658 -13.85096 32993 ft 479 kts 23°
2026-04-29 12:40 31.97717 -13.81688 32993 ft 479 kts 23°
2026-04-29 12:41 32.03777 -13.78275 32993 ft 480 kts 23°
2026-04-29 12:41 32.09829 -13.74862 32993 ft 479 kts 23°
2026-04-29 12:42 32.15833 -13.71471 32993 ft 479 kts 23°
2026-04-29 12:42 32.21863 -13.68060 32993 ft 480 kts 23°
2026-04-29 12:43 32.27902 -13.64639 32993 ft 480 kts 23°
2026-04-29 12:43 32.33956 -13.61205 32993 ft 481 kts 23°
2026-04-29 12:44 32.39998 -13.57771 32993 ft 481 kts 23°
2026-04-29 12:44 32.46063 -13.54321 32992 ft 481 kts 23°
2026-04-29 12:45 32.52104 -13.50878 32993 ft 482 kts 22°
2026-04-29 12:45 32.58222 -13.47386 32992 ft 481 kts 22°
2026-04-29 12:46 32.64326 -13.43897 32993 ft 481 kts 22°
2026-04-29 12:46 32.70431 -13.40403 32993 ft 481 kts 23°
2026-04-29 12:47 32.76495 -13.36926 32993 ft 481 kts 23°
2026-04-29 12:47 32.82566 -13.33440 32993 ft 481 kts 23°
2026-04-29 12:48 32.88617 -13.29962 32993 ft 481 kts 23°
2026-04-29 12:48 32.94661 -13.26482 32993 ft 482 kts 23°
2026-04-29 12:49 33.00525 -13.22457 32994 ft 485 kts 29°
2026-04-29 12:49 33.06314 -13.18187 32993 ft 484 kts 29°
2026-04-29 12:50 33.12093 -13.13908 32993 ft 484 kts 30°
2026-04-29 12:50 33.17814 -13.09661 32993 ft 484 kts 29°
2026-04-29 12:51 33.23549 -13.05397 32993 ft 485 kts 29°
2026-04-29 12:51 33.29318 -13.01098 32993 ft 485 kts 29°
2026-04-29 12:52 33.35044 -12.96825 32992 ft 485 kts 29°
2026-04-29 12:52 33.40791 -12.92529 32991 ft 485 kts 29°
2026-04-29 12:53 33.46557 -12.88212 32993 ft 486 kts 29°
2026-04-29 12:53 33.52317 -12.83892 32993 ft 486 kts 29°
2026-04-29 12:54 33.58051 -12.79584 32992 ft 485 kts 29°
2026-04-29 12:54 33.63812 -12.75250 32967 ft 486 kts 29°
2026-04-29 12:55 33.69621 -12.70872 32966 ft 486 kts 29°
2026-04-29 12:55 33.75403 -12.66508 32966 ft 486 kts 29°
2026-04-29 12:56 33.81221 -12.62110 32965 ft 486 kts 29°
2026-04-29 12:56 33.86982 -12.57748 32965 ft 487 kts 29°
2026-04-29 12:57 33.92810 -12.53327 32966 ft 487 kts 29°
2026-04-29 12:57 33.98578 -12.48945 32966 ft 487 kts 29°
2026-04-29 12:58 34.04340 -12.44561 32965 ft 486 kts 29°
2026-04-29 12:58 34.10117 -12.40158 32966 ft 487 kts 29°
2026-04-29 12:59 34.15840 -12.35789 32966 ft 487 kts 29°
2026-04-29 12:59 34.21588 -12.31396 32966 ft 487 kts 30°
2026-04-29 13:00 34.27301 -12.27023 32966 ft 487 kts 30°
2026-04-29 13:00 34.33081 -12.22589 32965 ft 487 kts 29°
2026-04-29 13:01 34.38826 -12.18176 32966 ft 488 kts 29°
2026-04-29 13:01 34.44629 -12.13710 32966 ft 488 kts 29°
2026-04-29 13:02 34.50456 -12.09217 32966 ft 487 kts 29°
2026-04-29 13:02 34.56251 -12.04742 32966 ft 487 kts 29°
2026-04-29 13:03 34.61999 -12.00296 32966 ft 487 kts 29°
2026-04-29 13:03 34.67799 -11.95802 32967 ft 489 kts 29°
2026-04-29 13:04 34.73621 -11.91283 32965 ft 490 kts 29°
2026-04-29 13:04 34.79410 -11.86781 32965 ft 488 kts 29°
2026-04-29 13:05 34.85243 -11.82239 32966 ft 489 kts 29°
2026-04-29 13:05 34.90982 -11.77762 32990 ft 489 kts 29°
2026-04-29 13:06 34.96713 -11.73284 32993 ft 491 kts 29°
2026-04-29 13:06 35.02470 -11.68777 32992 ft 491 kts 29°
2026-04-29 13:07 35.08196 -11.64287 32993 ft 490 kts 29°
2026-04-29 13:07 35.13911 -11.59799 32993 ft 491 kts 29°
2026-04-29 13:08 35.19641 -11.55291 32993 ft 491 kts 29°
2026-04-29 13:08 35.25404 -11.50750 32993 ft 492 kts 29°
2026-04-29 13:09 35.31103 -11.46251 33002 ft 492 kts 29°
2026-04-29 13:09 35.36855 -11.41702 33023 ft 492 kts 29°
2026-04-29 13:10 35.42598 -11.37153 33050 ft 492 kts 29°
2026-04-29 13:10 35.48328 -11.32607 33067 ft 491 kts 29°
2026-04-29 13:11 35.54055 -11.28060 33074 ft 491 kts 29°
2026-04-29 13:11 35.59768 -11.23513 33074 ft 492 kts 29°
2026-04-29 13:12 35.65499 -11.18943 33074 ft 492 kts 29°
2026-04-29 13:12 35.71241 -11.14356 33074 ft 492 kts 29°
2026-04-29 13:13 35.76955 -11.09782 33074 ft 492 kts 29°
2026-04-29 13:13 35.82674 -11.05197 33074 ft 492 kts 29°
2026-04-29 13:14 35.88398 -11.00600 33074 ft 492 kts 29°
2026-04-29 13:14 35.94108 -10.96006 33074 ft 492 kts 29°
2026-04-29 13:15 35.99643 -10.90979 33075 ft 495 kts 34°
2026-04-29 13:15 36.05105 -10.85722 33075 ft 498 kts 33°
2026-04-29 13:16 36.10556 -10.80520 33073 ft 498 kts 33°
2026-04-29 13:16 36.16024 -10.75319 33074 ft 497 kts 33°
2026-04-29 13:17 36.21503 -10.70114 33074 ft 497 kts 33°
2026-04-29 13:17 36.26987 -10.64901 33074 ft 497 kts 33°
2026-04-29 13:18 36.32439 -10.59714 33074 ft 497 kts 33°
2026-04-29 13:18 36.37908 -10.54504 33074 ft 497 kts 33°
2026-04-29 13:19 36.43401 -10.49263 33074 ft 497 kts 33°
2026-04-29 13:19 36.48861 -10.44045 33074 ft 498 kts 33°
2026-04-29 13:20 36.54352 -10.38787 33074 ft 497 kts 33°
2026-04-29 13:20 36.59699 -10.33659 32984 ft 500 kts 33°
2026-04-29 13:21 36.65179 -10.28400 32893 ft 499 kts 33°
2026-04-29 13:21 36.70651 -10.23135 32896 ft 498 kts 33°
2026-04-29 13:22 36.76138 -10.17846 32895 ft 500 kts 33°
2026-04-29 13:22 36.81647 -10.12524 32885 ft 501 kts 33°
2026-04-29 13:23 36.87150 -10.07198 32884 ft 501 kts 33°
2026-04-29 13:23 36.92659 -10.01855 32888 ft 501 kts 33°
2026-04-29 13:24 36.98167 -9.96505 32885 ft 504 kts 33°
2026-04-29 13:24 37.03736 -9.91084 32885 ft 507 kts 33°
2026-04-29 13:25 37.09282 -9.85673 32885 ft 507 kts 33°
2026-04-29 13:25 37.17595 -9.77544 32885 ft 506 kts 33°
2026-04-29 13:26 37.23145 -9.72106 32885 ft 507 kts 33°
2026-04-29 13:26 37.28672 -9.66679 32885 ft 507 kts 33°
2026-04-29 13:27 37.34255 -9.61187 32885 ft 508 kts 33°
2026-04-29 13:27 37.39792 -9.55728 32887 ft 507 kts 33°
2026-04-29 13:28 37.45349 -9.50240 32885 ft 508 kts 32°
2026-04-29 13:28 37.50887 -9.44760 32885 ft 508 kts 32°
2026-04-29 13:29 37.56441 -9.39253 32885 ft 508 kts 32°
2026-04-29 13:29 37.61997 -9.33734 32884 ft 508 kts 33°
2026-04-29 13:30 37.67530 -9.28236 32885 ft 509 kts 33°
2026-04-29 13:30 37.73095 -9.22692 32885 ft 510 kts 33°
2026-04-29 13:31 37.78666 -9.17127 32884 ft 510 kts 33°
2026-04-29 13:31 37.84241 -9.11547 32885 ft 510 kts 33°
2026-04-29 13:32 37.89801 -9.05969 32884 ft 511 kts 33°
2026-04-29 13:32 37.95365 -9.00377 32885 ft 511 kts 33°
2026-04-29 13:33 38.00923 -8.94779 32885 ft 511 kts 34°
2026-04-29 13:33 38.06439 -8.89212 32884 ft 510 kts 34°
2026-04-29 13:34 38.11948 -8.83526 32885 ft 510 kts 35°
2026-04-29 13:34 38.17440 -8.77821 32885 ft 512 kts 34°
2026-04-29 13:35 38.22957 -8.72153 32884 ft 512 kts 34°
2026-04-29 13:35 38.28524 -8.66455 32885 ft 512 kts 34°
2026-04-29 13:36 38.34060 -8.60795 32885 ft 512 kts 34°
2026-04-29 13:36 38.39622 -8.55109 32885 ft 512 kts 34°
2026-04-29 13:37 38.45176 -8.49423 32885 ft 512 kts 34°
2026-04-29 13:37 38.50700 -8.43759 32885 ft 511 kts 34°
2026-04-29 13:38 38.56206 -8.38103 32885 ft 511 kts 34°
2026-04-29 13:38 38.61776 -8.32376 32885 ft 512 kts 35°
2026-04-29 13:39 38.67304 -8.26684 32885 ft 512 kts 35°
2026-04-29 13:39 38.72807 -8.21004 32885 ft 511 kts 35°
2026-04-29 13:40 38.78338 -8.15280 32884 ft 509 kts 36°
2026-04-29 13:40 38.83808 -8.09608 32885 ft 509 kts 36°
2026-04-29 13:41 38.89308 -8.03891 32884 ft 508 kts 36°
2026-04-29 13:41 38.94796 -7.98177 32881 ft 508 kts 36°
2026-04-29 13:42 39.00291 -7.92444 32884 ft 510 kts 36°
2026-04-29 13:42 39.05783 -7.86699 32884 ft 508 kts 37°
2026-04-29 13:43 39.11244 -7.80975 32884 ft 506 kts 37°
2026-04-29 13:43 39.16671 -7.75276 32885 ft 505 kts 37°
2026-04-29 13:44 39.22117 -7.69545 32885 ft 505 kts 37°
2026-04-29 13:44 39.27549 -7.63818 32885 ft 504 kts 37°
2026-04-29 13:45 39.32932 -7.58130 32884 ft 503 kts 37°
2026-04-29 13:45 39.38322 -7.52423 32885 ft 503 kts 37°
2026-04-29 13:46 39.43747 -7.46668 32885 ft 503 kts 37°
2026-04-29 13:46 39.49165 -7.40908 32885 ft 504 kts 37°
2026-04-29 13:47 39.54551 -7.35189 32882 ft 504 kts 36°
2026-04-29 13:47 39.60054 -7.29634 32874 ft 503 kts 36°
2026-04-29 13:48 39.65595 -7.24104 32864 ft 503 kts 36°
2026-04-29 13:48 39.71139 -7.18580 32858 ft 503 kts 36°
2026-04-29 13:49 39.76711 -7.13027 32858 ft 504 kts 36°
2026-04-29 13:49 39.82262 -7.07488 32858 ft 504 kts 36°
2026-04-29 13:50 39.87773 -7.01980 32858 ft 504 kts 36°
2026-04-29 13:50 39.93325 -6.96420 32882 ft 504 kts 36°
2026-04-29 13:51 39.98890 -6.90838 32885 ft 506 kts 36°
2026-04-29 13:51 40.04443 -6.85259 32882 ft 499 kts 37°
2026-04-29 13:52 40.09922 -6.79738 32886 ft 498 kts 37°
2026-04-29 13:52 40.15419 -6.74190 32885 ft 501 kts 37°
2026-04-29 13:53 40.20915 -6.68630 32877 ft 502 kts 37°
2026-04-29 13:53 40.26414 -6.63056 32865 ft 501 kts 37°
2026-04-29 13:54 40.31934 -6.57450 32859 ft 502 kts 37°
2026-04-29 13:54 40.37438 -6.51848 32858 ft 502 kts 37°
2026-04-29 13:55 40.42976 -6.46198 32858 ft 502 kts 37°
2026-04-29 13:55 40.48473 -6.40580 32858 ft 502 kts 37°
2026-04-29 13:56 40.53931 -6.34992 32858 ft 502 kts 37°
2026-04-29 13:56 40.59660 -6.29775 32859 ft 501 kts 31°
2026-04-29 13:57 40.65714 -6.25300 32858 ft 500 kts 27°
2026-04-29 13:57 40.71845 -6.21009 32858 ft 499 kts 27°
2026-04-29 13:58 40.77993 -6.16726 32858 ft 499 kts 27°
2026-04-29 13:58 40.84099 -6.12479 32858 ft 498 kts 27°
2026-04-29 13:59 40.90205 -6.08231 32858 ft 498 kts 27°
2026-04-29 13:59 40.96307 -6.03981 32858 ft 497 kts 27°
2026-04-29 14:00 41.02401 -5.99729 32857 ft 496 kts 27°
2026-04-29 14:00 41.08514 -5.95457 32859 ft 499 kts 27°
2026-04-29 14:01 41.14655 -5.91157 32857 ft 498 kts 27°
2026-04-29 14:01 41.20765 -5.86870 32858 ft 497 kts 28°
2026-04-29 14:02 41.26835 -5.82602 32858 ft 496 kts 28°
2026-04-29 14:02 41.32913 -5.78320 32858 ft 496 kts 28°
2026-04-29 14:03 41.38976 -5.74039 32858 ft 495 kts 28°
2026-04-29 14:03 41.45061 -5.69734 32858 ft 495 kts 28°
2026-04-29 14:04 41.51138 -5.65435 32857 ft 495 kts 27°
2026-04-29 14:04 41.57437 -5.61622 32858 ft 495 kts 23°
2026-04-29 14:05 41.63723 -5.58019 32858 ft 494 kts 23°
2026-04-29 14:05 41.70047 -5.54419 32858 ft 494 kts 23°
2026-04-29 14:06 41.76336 -5.50848 32857 ft 494 kts 23°
2026-04-29 14:06 41.82658 -5.47260 32858 ft 494 kts 23°
2026-04-29 14:07 41.89012 -5.43651 32857 ft 494 kts 23°
2026-04-29 14:07 41.95297 -5.40076 32858 ft 494 kts 23°
2026-04-29 14:08 42.01638 -5.36464 32858 ft 495 kts 23°
2026-04-29 14:08 42.07906 -5.32889 32857 ft 494 kts 24°
2026-04-29 14:09 42.14235 -5.29273 32858 ft 495 kts 24°
2026-04-29 14:09 42.20581 -5.25637 32858 ft 495 kts 24°
2026-04-29 14:10 42.26921 -5.21996 32858 ft 496 kts 24°
2026-04-29 14:10 42.33223 -5.18368 32858 ft 496 kts 24°
2026-04-29 14:11 42.39584 -5.14698 32858 ft 496 kts 24°
2026-04-29 14:11 42.45935 -5.11026 32858 ft 497 kts 24°
2026-04-29 14:12 42.52249 -5.07366 32858 ft 497 kts 24°
2026-04-29 14:12 42.58604 -5.03675 32858 ft 497 kts 24°
2026-04-29 14:13 42.64945 -4.99984 32858 ft 498 kts 24°
2026-04-29 14:13 42.71289 -4.96251 32858 ft 498 kts 24°
2026-04-29 14:14 42.77625 -4.92496 32857 ft 498 kts 24°
2026-04-29 14:14 42.83960 -4.88756 32858 ft 498 kts 24°
2026-04-29 14:15 42.90326 -4.85002 32853 ft 499 kts 24°
2026-04-29 14:15 42.96709 -4.81236 32855 ft 500 kts 24°
2026-04-29 14:16 43.03032 -4.77500 32857 ft 499 kts 24°
2026-04-29 14:16 43.09411 -4.73725 32851 ft 499 kts 24°
2026-04-29 14:17 43.15752 -4.69964 32841 ft 500 kts 24°
2026-04-29 14:17 43.22096 -4.66194 32830 ft 500 kts 24°
2026-04-29 14:18 43.28517 -4.62370 32831 ft 500 kts 24°
2026-04-29 14:18 43.34886 -4.58568 32830 ft 500 kts 24°
2026-04-29 14:19 43.41247 -4.54762 32831 ft 501 kts 24°
2026-04-29 14:19 43.47606 -4.50949 32831 ft 502 kts 24°
2026-04-29 14:20 43.54019 -4.47063 32830 ft 502 kts 25°
2026-04-29 14:20 43.60383 -4.43193 32831 ft 503 kts 24°
2026-04-29 14:21 43.66777 -4.39314 32831 ft 503 kts 24°
2026-04-29 14:21 43.73209 -4.35410 32831 ft 504 kts 24°
2026-04-29 14:22 43.79611 -4.31526 32831 ft 504 kts 25°
2026-04-29 14:22 43.86023 -4.27630 32831 ft 505 kts 25°
2026-04-29 14:23 43.92468 -4.23703 32831 ft 504 kts 25°
2026-04-29 14:23 43.98885 -4.19784 32831 ft 506 kts 25°
2026-04-29 14:24 44.05322 -4.15841 32830 ft 506 kts 25°
2026-04-29 14:24 44.11794 -4.11868 32830 ft 505 kts 25°
2026-04-29 14:25 44.18203 -4.07925 32831 ft 505 kts 25°
2026-04-29 14:25 44.24637 -4.03955 32831 ft 506 kts 25°
2026-04-29 14:26 44.30978 -3.99598 32831 ft 504 kts 32°
2026-04-29 14:26 44.36885 -3.94411 32830 ft 503 kts 35°
2026-04-29 14:27 44.42715 -3.88971 32831 ft 503 kts 36°
2026-04-29 14:28 44.51374 -3.80667 32831 ft 503 kts 37°
2026-04-29 14:28 44.57143 -3.75065 32831 ft 503 kts 37°
2026-04-29 14:29 44.62891 -3.69453 32831 ft 504 kts 37°
2026-04-29 14:29 44.68664 -3.63791 32831 ft 505 kts 37°
2026-04-29 14:30 44.74420 -3.58127 32830 ft 504 kts 37°
2026-04-29 14:30 44.80165 -3.52457 32831 ft 504 kts 37°
2026-04-29 14:31 44.85915 -3.46767 32831 ft 505 kts 37°
2026-04-29 14:31 44.91657 -3.41070 32831 ft 505 kts 37°
2026-04-29 14:32 44.97386 -3.35371 32831 ft 505 kts 36°
2026-04-29 14:32 45.03155 -3.29625 32831 ft 506 kts 37°
2026-04-29 14:33 45.08893 -3.23896 32831 ft 507 kts 37°
2026-04-29 14:33 45.14686 -3.18094 32831 ft 507 kts 37°
2026-04-29 14:34 45.20409 -3.12344 32831 ft 507 kts 37°
2026-04-29 14:34 45.26162 -3.06551 32838 ft 506 kts 37°
2026-04-29 14:35 45.31936 -3.00720 32862 ft 506 kts 37°
2026-04-29 14:35 45.37683 -2.94901 32890 ft 508 kts 37°
2026-04-29 14:36 45.43430 -2.89068 32907 ft 508 kts 37°
2026-04-29 14:36 45.49206 -2.83190 32912 ft 508 kts 37°
2026-04-29 14:37 45.54970 -2.77309 32912 ft 509 kts 37°
2026-04-29 14:37 45.60701 -2.71447 32912 ft 509 kts 37°
2026-04-29 14:38 45.66479 -2.65521 32913 ft 509 kts 37°
2026-04-29 14:38 45.72208 -2.59631 32912 ft 509 kts 37°
2026-04-29 14:39 45.77953 -2.53708 32911 ft 509 kts 37°
2026-04-29 14:39 45.83720 -2.47749 32912 ft 510 kts 37°
2026-04-29 14:40 45.89482 -2.41777 32911 ft 511 kts 36°
2026-04-29 14:40 45.95233 -2.35803 32914 ft 510 kts 36°
2026-04-29 14:41 46.00959 -2.29846 32920 ft 511 kts 37°
2026-04-29 14:41 46.06711 -2.23863 32921 ft 512 kts 36°
2026-04-29 14:42 46.12636 -2.18107 32920 ft 512 kts 34°
2026-04-29 14:42 46.18543 -2.12467 32927 ft 512 kts 34°
2026-04-29 14:43 46.24490 -2.06804 32937 ft 512 kts 34°
2026-04-29 14:43 46.30418 -2.01159 32939 ft 512 kts 34°
2026-04-29 14:44 46.36333 -1.95518 32939 ft 512 kts 34°
2026-04-29 14:44 46.42258 -1.89858 32938 ft 511 kts 34°
2026-04-29 14:45 46.48166 -1.84201 32939 ft 510 kts 34°
2026-04-29 14:45 46.54075 -1.78531 32939 ft 511 kts 34°
2026-04-29 14:46 46.60003 -1.72827 32939 ft 511 kts 34°
2026-04-29 14:46 46.65883 -1.67156 32938 ft 510 kts 34°
2026-04-29 14:47 46.71807 -1.61426 32939 ft 510 kts 34°
2026-04-29 14:47 46.77694 -1.55717 32938 ft 510 kts 34°
2026-04-29 14:48 46.83562 -1.50012 32924 ft 510 kts 34°
2026-04-29 14:48 46.89463 -1.44259 32912 ft 510 kts 34°
2026-04-29 14:49 46.95029 -1.37847 32913 ft 507 kts 43°
2026-04-29 14:49 47.00088 -1.30775 32912 ft 506 kts 47°
2026-04-29 14:50 47.04967 -1.23360 32912 ft 506 kts 49°
2026-04-29 14:50 47.09750 -1.15797 32914 ft 506 kts 49°
2026-04-29 14:51 47.14439 -1.08238 32926 ft 506 kts 50°
2026-04-29 14:51 47.19144 -1.00578 32932 ft 505 kts 50°
2026-04-29 14:52 47.23844 -0.92875 32938 ft 505 kts 50°
2026-04-29 14:52 47.28519 -0.85174 32939 ft 507 kts 50°
2026-04-29 14:53 47.33200 -0.77435 32939 ft 507 kts 50°
2026-04-29 14:53 47.37872 -0.69684 32939 ft 507 kts 50°
2026-04-29 14:54 47.42712 -0.62097 32939 ft 508 kts 45°
2026-04-29 14:54 47.47980 -0.55163 32939 ft 509 kts 39°
2026-04-29 14:55 47.53574 -0.48830 32939 ft 509 kts 37°
2026-04-29 14:55 47.59249 -0.42504 32939 ft 509 kts 37°
2026-04-29 14:56 47.64891 -0.36231 32938 ft 508 kts 37°
2026-04-29 14:56 47.70497 -0.30002 32939 ft 508 kts 38°
2026-04-29 14:57 47.76157 -0.23706 32939 ft 508 kts 38°
2026-04-29 14:57 47.81802 -0.17409 32950 ft 508 kts 38°
2026-04-29 14:58 47.87413 -0.11134 32957 ft 508 kts 38°
2026-04-29 14:58 47.93043 -0.04820 32981 ft 508 kts 38°
2026-04-29 14:59 47.98697 0.01541 33012 ft 506 kts 37°
2026-04-29 14:59 48.01438 0.04657 33014 ft 495 kts 36°
2026-04-29 14:59 48.04169 0.07757 33019 ft 490 kts 36°
2026-04-29 15:00 48.09619 0.13899 33022 ft 496 kts 36°
2026-04-29 15:00 48.15140 0.20147 33020 ft 497 kts 36°
2026-04-29 15:01 48.20615 0.26366 33019 ft 494 kts 36°
2026-04-29 15:01 48.26071 0.32583 33020 ft 494 kts 36°
2026-04-29 15:02 48.31522 0.38813 33020 ft 495 kts 36°
2026-04-29 15:02 48.36999 0.45090 33020 ft 494 kts 36°
2026-04-29 15:03 48.42421 0.51324 33020 ft 493 kts 36°
2026-04-29 15:03 48.47887 0.57624 33020 ft 493 kts 36°
2026-04-29 15:04 48.53316 0.63900 33026 ft 492 kts 36°
2026-04-29 15:04 48.58732 0.70172 33035 ft 491 kts 37°
2026-04-29 15:05 48.64139 0.76450 33045 ft 491 kts 37°
2026-04-29 15:05 48.69532 0.82733 33047 ft 491 kts 37°
2026-04-29 15:06 48.74962 0.89079 33068 ft 488 kts 37°
2026-04-29 15:06 48.77625 0.92220 33238 ft 486 kts 37°
2026-04-29 15:06 48.80291 0.95364 33235 ft 488 kts 37°
2026-04-29 15:07 48.85650 1.01635 33236 ft 488 kts 36°
2026-04-29 15:07 48.91025 1.07890 33235 ft 486 kts 36°
2026-04-29 15:08 48.96359 1.14076 33235 ft 472 kts 37°
2026-04-29 15:08 49.01480 1.20045 33237 ft 465 kts 38°
2026-04-29 15:09 49.06311 1.26650 33237 ft 470 kts 42°
2026-04-29 15:09 49.11085 1.33496 33235 ft 468 kts 43°
2026-04-29 15:10 49.15801 1.40286 33236 ft 466 kts 43°
2026-04-29 15:10 49.20507 1.47081 33236 ft 466 kts 43°
2026-04-29 15:11 49.25195 1.53870 33236 ft 465 kts 43°
2026-04-29 15:11 49.29857 1.60663 33236 ft 465 kts 43°
2026-04-29 15:12 49.34539 1.67513 33236 ft 464 kts 43°
2026-04-29 15:12 49.39200 1.74334 33236 ft 463 kts 43°
2026-04-29 15:13 49.43841 1.81136 33236 ft 462 kts 43°
2026-04-29 15:13 49.48474 1.87940 33236 ft 461 kts 43°
2026-04-29 15:14 49.53071 1.94713 33236 ft 460 kts 43°
2026-04-29 15:14 49.57695 2.01588 33236 ft 459 kts 43°
2026-04-29 15:15 49.62256 2.08371 33236 ft 459 kts 43°
2026-04-29 15:15 49.66840 2.15192 33236 ft 459 kts 43°
2026-04-29 15:16 49.71449 2.22061 33236 ft 459 kts 43°
2026-04-29 15:16 49.76009 2.28871 33236 ft 459 kts 43°
2026-04-29 15:17 49.80608 2.35755 33236 ft 459 kts 43°
2026-04-29 15:17 49.85167 2.42599 33236 ft 459 kts 43°
2026-04-29 15:18 49.89747 2.49491 33236 ft 459 kts 43°
2026-04-29 15:18 49.94468 2.56046 33236 ft 458 kts 38°
2026-04-29 15:19 49.99617 2.61926 33235 ft 458 kts 32°
2026-04-29 15:19 50.04997 2.67066 33235 ft 453 kts 31°
2026-04-29 15:20 50.10401 2.72083 33237 ft 453 kts 31°
2026-04-29 15:20 50.15747 2.77096 33236 ft 454 kts 32°
2026-04-29 15:21 50.21151 2.82168 33236 ft 453 kts 32°
2026-04-29 15:21 50.26525 2.87210 33156 ft 451 kts 32°
2026-04-29 15:22 50.31898 2.92257 33181 ft 451 kts 32°
2026-04-29 15:22 50.37282 2.97324 33200 ft 451 kts 32°
2026-04-29 15:23 50.42652 3.02389 33209 ft 451 kts 32°
2026-04-29 15:23 50.48015 3.07457 33209 ft 450 kts 32°
2026-04-29 15:24 50.53337 3.12500 33209 ft 450 kts 32°
2026-04-29 15:24 50.58702 3.17595 33209 ft 449 kts 32°
2026-04-29 15:25 50.64034 3.22674 33209 ft 449 kts 32°
2026-04-29 15:25 50.69349 3.27749 33209 ft 448 kts 32°
2026-04-29 15:26 50.74646 3.32821 33209 ft 448 kts 32°
2026-04-29 15:26 50.79997 3.37959 33209 ft 447 kts 32°
2026-04-29 15:27 50.85279 3.43043 33209 ft 447 kts 32°
2026-04-29 15:27 50.90579 3.48159 33210 ft 446 kts 33°
2026-04-29 15:28 50.95839 3.53250 33213 ft 445 kts 33°
2026-04-29 15:28 51.01108 3.58363 33213 ft 444 kts 33°
2026-04-29 15:29 51.06368 3.63482 33263 ft 443 kts 33°
2026-04-29 15:30 51.16801 3.73683 33263 ft 441 kts 34°
2026-04-29 15:30 51.22033 3.78819 33263 ft 440 kts 34°
2026-04-29 15:31 51.27202 3.83904 33263 ft 439 kts 34°
2026-04-29 15:31 51.32380 3.89013 33263 ft 438 kts 34°
2026-04-29 15:32 51.37562 3.94139 33263 ft 437 kts 34°
2026-04-29 15:32 51.42732 3.99267 33263 ft 437 kts 34°
2026-04-29 15:33 51.47425 4.05175 33263 ft 429 kts 43°
2026-04-29 15:33 51.51845 4.11600 33264 ft 429 kts 45°
2026-04-29 15:34 51.56141 4.18206 33273 ft 430 kts 46°
2026-04-29 15:34 51.60415 4.24961 33288 ft 429 kts 46°
2026-04-29 15:35 51.64629 4.31710 33301 ft 428 kts 47°
2026-04-29 15:35 51.68832 4.38492 33316 ft 428 kts 47°
2026-04-29 15:36 51.73015 4.45281 33317 ft 428 kts 47°
2026-04-29 15:36 51.77193 4.52091 33285 ft 428 kts 47°
2026-04-29 15:37 51.81381 4.58939 33290 ft 427 kts 47°
2026-04-29 15:37 51.85537 4.65757 33291 ft 427 kts 47°
2026-04-29 15:38 51.89677 4.72581 33290 ft 426 kts 47°
2026-04-29 15:38 51.93796 4.79388 33290 ft 425 kts 47°
2026-04-29 15:39 51.97940 4.86250 33295 ft 424 kts 47°
2026-04-29 15:39 52.02034 4.93047 33303 ft 422 kts 47°
2026-04-29 15:40 52.06108 4.99831 33310 ft 419 kts 47°
2026-04-29 15:40 52.10188 5.06643 33318 ft 419 kts 47°
2026-04-29 15:41 52.14230 5.13410 33317 ft 419 kts 47°
2026-04-29 15:41 52.18258 5.20170 33318 ft 417 kts 47°
2026-04-29 15:42 52.22308 5.26987 33326 ft 416 kts 47°
2026-04-29 15:42 52.26305 5.33735 33333 ft 416 kts 47°
2026-04-29 15:43 52.30331 5.40549 33339 ft 415 kts 47°
2026-04-29 15:43 52.34322 5.47323 33344 ft 415 kts 47°
2026-04-29 15:44 52.38310 5.54111 33344 ft 414 kts 47°
2026-04-29 15:44 52.42278 5.60883 33344 ft 414 kts 47°
2026-04-29 15:45 52.46263 5.67708 33344 ft 414 kts 47°
2026-04-29 15:45 52.50217 5.74508 33344 ft 414 kts 47°
2026-04-29 15:46 52.54180 5.81338 33348 ft 414 kts 47°
2026-04-29 15:46 52.58145 5.88185 33356 ft 414 kts 47°
2026-04-29 15:47 52.62107 5.95044 33363 ft 414 kts 47°
2026-04-29 15:47 52.66051 6.01890 33374 ft 413 kts 47°
2026-04-29 15:48 52.69964 6.08702 33379 ft 409 kts 47°
2026-04-29 15:48 52.73872 6.15527 33387 ft 410 kts 47°
2026-04-29 15:49 52.77777 6.22363 33392 ft 411 kts 47°
2026-04-29 15:49 52.81707 6.29258 33398 ft 412 kts 47°
2026-04-29 15:50 52.85550 6.36226 33398 ft 412 kts 43°
2026-04-29 15:50 52.89891 6.42356 33398 ft 412 kts 41°
2026-04-29 15:51 52.94270 6.48485 33398 ft 412 kts 41°
2026-04-29 15:51 52.98618 6.54621 33398 ft 412 kts 41°
2026-04-29 15:52 53.02980 6.60813 33398 ft 412 kts 41°
2026-04-29 15:52 53.07318 6.67001 33398 ft 412 kts 42°
2026-04-29 15:53 53.11632 6.73191 33398 ft 412 kts 42°
2026-04-29 15:53 53.15957 6.79409 33405 ft 411 kts 42°
2026-04-29 15:54 53.20270 6.85624 33411 ft 410 kts 42°
2026-04-29 15:54 53.24579 6.91848 33419 ft 410 kts 42°
2026-04-29 15:55 53.28894 6.98098 33425 ft 410 kts 42°
2026-04-29 15:55 53.33194 7.04341 33425 ft 410 kts 42°
2026-04-29 15:56 53.37488 7.10595 33425 ft 409 kts 41°
2026-04-29 15:56 53.41747 7.16814 33425 ft 409 kts 41°
2026-04-29 15:57 53.46028 7.23083 33425 ft 409 kts 41°
2026-04-29 15:57 53.50297 7.29350 33425 ft 408 kts 41°
2026-04-29 15:58 53.54559 7.35626 33425 ft 407 kts 41°
2026-04-29 15:58 53.58832 7.41935 33425 ft 406 kts 41°
2026-04-29 15:59 53.63084 7.48233 33425 ft 406 kts 41°
2026-04-29 15:59 53.67297 7.54488 33425 ft 405 kts 41°
2026-04-29 16:00 53.71531 7.60793 33425 ft 405 kts 41°
2026-04-29 16:00 53.75637 7.66925 33425 ft 404 kts 42°
2026-04-29 16:01 53.79930 7.73369 33425 ft 405 kts 42°
2026-04-29 16:01 53.84141 7.79703 33425 ft 404 kts 42°
2026-04-29 16:02 53.88314 7.85994 33425 ft 403 kts 42°
2026-04-29 16:02 53.92494 7.92309 33425 ft 404 kts 42°
2026-04-29 16:03 53.96703 7.98683 33425 ft 404 kts 42°
2026-04-29 16:03 54.00880 8.05025 33425 ft 404 kts 42°
2026-04-29 16:04 54.05037 8.11355 33425 ft 404 kts 42°
2026-04-29 16:04 54.08995 8.18145 33426 ft 404 kts 49°
2026-04-29 16:05 54.12575 8.25487 33425 ft 404 kts 49°
2026-04-29 16:05 54.16151 8.32924 33425 ft 404 kts 49°
2026-04-29 16:06 54.19722 8.40359 33425 ft 404 kts 49°
2026-04-29 16:06 54.23266 8.47755 33472 ft 402 kts 49°
2026-04-29 16:07 54.26806 8.55156 33479 ft 403 kts 49°
2026-04-29 16:07 54.30336 8.62558 33479 ft 403 kts 49°
2026-04-29 16:08 54.33861 8.69978 33479 ft 402 kts 50°
2026-04-29 16:08 54.37385 8.77429 33479 ft 402 kts 50°
2026-04-29 16:09 54.40906 8.84890 33479 ft 401 kts 50°
2026-04-29 16:09 54.44390 8.92285 33477 ft 401 kts 50°
2026-04-29 16:10 54.47879 8.99711 33468 ft 400 kts 50°
2026-04-29 16:10 54.51372 9.07168 33460 ft 400 kts 50°
2026-04-29 16:11 54.54845 9.14603 33453 ft 399 kts 49°
2026-04-29 16:11 54.58319 9.22063 33461 ft 398 kts 49°
2026-04-29 16:12 54.61782 9.29521 33470 ft 398 kts 49°
2026-04-29 16:12 54.65233 9.36976 33478 ft 397 kts 49°
2026-04-29 16:13 54.68658 9.44397 33479 ft 397 kts 49°
2026-04-29 16:13 54.72100 9.51877 33479 ft 397 kts 49°
2026-04-29 16:14 54.75529 9.59351 33478 ft 396 kts 49°
2026-04-29 16:14 54.78943 9.66818 33479 ft 397 kts 50°
2026-04-29 16:15 54.82339 9.74421 33479 ft 397 kts 50°
2026-04-29 16:15 54.86051 9.81410 33480 ft 396 kts 44°
2026-04-29 16:16 54.89952 9.88178 33479 ft 396 kts 44°
2026-04-29 16:16 54.93839 9.94932 33479 ft 396 kts 44°
2026-04-29 16:17 54.97738 10.01733 33481 ft 396 kts 44°
2026-04-29 16:17 55.01568 10.08443 33478 ft 390 kts 44°
2026-04-29 16:18 55.05386 10.15150 33479 ft 392 kts 44°
2026-04-29 16:18 55.09253 10.21963 33479 ft 394 kts 44°
2026-04-29 16:19 55.13090 10.28746 33479 ft 394 kts 44°
2026-04-29 16:19 55.16923 10.35542 33479 ft 393 kts 43°
2026-04-29 16:20 55.20763 10.42370 33479 ft 393 kts 43°
2026-04-29 16:20 55.24617 10.49244 33479 ft 394 kts 43°
2026-04-29 16:21 55.28465 10.56127 33480 ft 393 kts 43°
2026-04-29 16:21 55.32285 10.62980 33479 ft 392 kts 43°
2026-04-29 16:22 55.36059 10.69782 33479 ft 393 kts 44°
2026-04-29 16:22 55.39851 10.76641 33479 ft 393 kts 44°
2026-04-29 16:23 55.43658 10.83543 33479 ft 392 kts 44°
2026-04-29 16:23 55.47449 10.90433 33479 ft 391 kts 44°
2026-04-29 16:24 55.51240 10.97339 33479 ft 391 kts 44°
2026-04-29 16:24 55.55016 11.04235 33479 ft 391 kts 44°
2026-04-29 16:25 55.58774 11.11117 33473 ft 390 kts 44°
2026-04-29 16:25 55.62533 11.18022 33466 ft 390 kts 44°
2026-04-29 16:26 55.66305 11.24971 33457 ft 389 kts 44°
2026-04-29 16:26 55.70047 11.31884 33452 ft 390 kts 44°
2026-04-29 16:27 55.73795 11.38829 33452 ft 389 kts 44°
2026-04-29 16:27 55.77529 11.45770 33452 ft 389 kts 44°
2026-04-29 16:28 55.81262 11.52728 33452 ft 388 kts 44°
2026-04-29 16:28 55.84980 11.59680 33452 ft 388 kts 44°
2026-04-29 16:29 55.88678 11.66617 33452 ft 389 kts 44°
2026-04-29 16:29 55.92397 11.73632 33452 ft 388 kts 44°
2026-04-29 16:30 55.96091 11.80619 33452 ft 388 kts 44°
2026-04-29 16:30 55.99793 11.87633 33452 ft 388 kts 44°
2026-04-29 16:31 56.03490 11.94654 33452 ft 388 kts 44°
2026-04-29 16:31 56.07180 12.01680 33452 ft 388 kts 44°
2026-04-29 16:32 56.10876 12.08736 33452 ft 388 kts 44°
2026-04-29 16:32 56.14493 12.15951 33452 ft 389 kts 47°
2026-04-29 16:33 56.19637 12.27149 33452 ft 389 kts 46°
2026-04-29 16:33 56.23135 12.34581 33452 ft 389 kts 46°
2026-04-29 16:34 56.26646 12.41978 33452 ft 389 kts 46°
2026-04-29 16:34 56.30156 12.49356 33452 ft 389 kts 45°